FW1504 Weather Reports


Display with metric or nautical units.
time (UTC)temp
F
wind
direction
speed
MPH
gust
MPH
rain 1hr
in
rain 24hr
in
rain mn
in
humidity
%
barometer
mb
20260904060054 80 171 1.0 6.0 0.00 0.00 0.00 72 1011.2
20260904054552 80 169 1.0 5.0 0.00 0.00 0.00 72 1011.3
20260904053054 80 190 2.0 6.0 0.00 0.00 0.00 71 1011.2
20260904051547 81 165 0.0 5.0 0.00 0.00 0.00 70 1011.0
20260904050051 81 174 1.0 5.0 0.00 0.00 0.00 70 1010.9
20260904044553 81 184 1.0 5.0 0.00 0.00 0.00 69 1011.1
20260904043045 81 176 1.0 4.0 0.00 0.00 0.00 69 1011.2
20260904041548 82 235 0.0 4.0 0.00 0.00 0.00 68 1011.2
20260904040043 82 75 0.0 4.0 0.00 0.00 0.00 67 1011.2
20260904034552 82 180 0.0 4.0 0.00 0.00 0.00 66 1011.4
20260904033041 83 192 1.0 4.0 0.00 0.00 0.00 66 1011.4
20260904031543 83 218 1.0 5.0 0.00 0.00 0.00 65 1011.3
20260904030041 84 98 1.0 6.0 0.00 0.00 0.00 64 1011.1
20260904024545 84 89 1.0 5.0 0.00 0.00 0.00 63 1010.9
20260904023043 85 218 1.0 9.0 0.00 0.00 0.00 61 1010.8
20260904021538 85 205 1.0 7.0 0.00 0.00 0.00 61 1010.5
20260904020045 85 360 2.0 6.0 0.00 0.00 0.00 60 1010.3
20260904014539 86 68 1.0 6.0 0.00 0.00 0.00 60 1010.1
20260904013038 86 192 0.0 4.0 0.00 0.00 0.00 59 1009.9
20260904011537 87 76 1.0 5.0 0.00 0.00 0.00 58 1009.6
20260904010042 87 71 2.0 8.0 0.00 0.00 0.00 57 1009.6
20260904004538 88 360 1.0 12.0 0.00 0.00 0.00 56 1009.3
20260904003035 89 360 2.0 8.0 0.00 0.00 0.00 56 1009.2
20260904001535 90 360 4.0 10.0 0.00 0.00 0.00 54 1009.2
20260904000035 91 360 3.0 10.0 0.00 0.00 0.00 52 1009.3
20260903234534 92 360 2.0 10.0 0.00 0.00 0.00 51 1009.4
20260903233036 92 196 2.0 7.0 0.00 0.00 0.00 50 1009.3
20260903231537 92 79 0.0 6.0 0.00 0.00 0.00 50 1009.2
20260903230038 93 192 2.0 8.0 0.00 0.00 0.00 50 1009.1
20260903224532 93 234 2.0 8.0 0.00 0.00 0.00 49 1009.0
20260903223031 93 182 1.0 9.0 0.00 0.00 0.00 49 1008.8
20260903221538 94 178 3.0 9.0 0.00 0.00 0.00 48 1008.7
20260903220054 94 80 2.0 8.0 0.00 0.00 0.00 47 1008.7
20260903214528 95 63 1.0 9.0 0.00 0.00 0.00 47 1008.9
20260903213028 95 120 2.0 7.0 0.00 0.00 0.00 48 1009.0
20260903211524 95 150 3.0 9.0 0.00 0.00 0.00 48 1009.1
20260903210023 95 183 3.0 7.0 0.00 0.00 0.00 48 1009.3
20260903204521 95 200 2.0 7.0 0.00 0.00 0.00 49 1009.4
20260903203023 93 88 1.0 7.0 0.00 0.00 0.00 50 1009.8
20260903201517 93 142 2.0 10.0 0.00 0.00 0.00 51 1010.0
20260903200033 93 196 1.0 7.0 0.00 0.00 0.00 52 1010.2
20260903194527 93 195 1.0 5.0 0.00 0.00 0.00 51 1010.2
20260903193005 92 207 3.0 9.0 0.00 0.00 0.00 52 1010.3
20260903191505 92 211 2.0 9.0 0.00 0.00 0.00 53 1010.5
20260903190002 92 173 1.0 9.0 0.00 0.00 0.00 52 1010.8
20260903184604 92 55 2.0 8.0 0.00 0.00 0.00 53 1010.8
20260903183118 91 256 1.0 6.0 0.00 0.00 0.00 54 1011.0
20260903181619 91 165 2.0 8.0 0.00 0.00 0.00 54 1011.2
20260903180054 91 226 2.0 7.0 0.00 0.00 0.00 54 1011.6
20260903174554 91 116 2.0 7.0 0.00 0.00 0.00 54 1011.7
20260903173056 90 207 3.0 9.0 0.00 0.00 0.00 56 1011.8
20260903171551 90 165 1.0 7.0 0.00 0.00 0.00 56 1011.9
20260903170044 89 213 2.0 6.0 0.00 0.00 0.00 56 1011.9
20260903164541 88 186 2.0 6.0 0.00 0.00 0.00 58 1011.8
20260903163037 88 153 1.0 8.0 0.00 0.00 0.00 59 1011.8
20260903161541 87 194 1.0 4.0 0.00 0.00 0.00 61 1011.9
20260903160029 86 144 1.0 6.0 0.00 0.00 0.00 63 1011.9
20260903154525 85 75 0.0 5.0 0.00 0.00 0.00 64 1012.1
20260903153021 84 169 0.0 6.0 0.00 0.00 0.00 66 1012.3
20260903151517 82 204 0.0 5.0 0.00 0.00 0.00 70 1012.3
20260903150016 81 207 2.0 6.0 0.00 0.00 0.00 70 1012.4
20260903144513 81 360 1.0 5.0 0.00 0.00 0.00 71 1012.7
20260903143010 80 163 1.0 8.0 0.00 0.00 0.00 73 1012.9
20260903141509 79 105 2.0 7.0 0.00 0.00 0.00 73 1012.7
20260903140014 79 212 3.0 9.0 0.00 0.00 0.00 74 1012.7
20260903134508 78 360 1.0 7.0 0.00 0.00 0.00 75 1012.9
20260903133005 78 199 1.0 5.0 0.00 0.00 0.00 74 1012.9
20260903131506 78 139 0.0 5.0 0.00 0.00 0.00 75 1012.7
20260903130104 77 360 0.0 6.0 0.00 0.00 0.00 76 1012.6
20260903124602 76 360 0.0 5.0 0.00 0.00 0.00 78 1012.7
20260903123052 75 360 1.0 4.0 0.00 0.00 0.00 79 1012.4
20260903121553 75 360 1.0 4.0 0.00 0.00 0.00 78 1012.3
20260903120046 76 360 1.0 3.0 0.00 0.00 0.00 77 1012.1
20260903114545 76 360 0.0 5.0 0.00 0.00 0.00 76 1012.0
20260903113043 76 360 1.0 4.0 0.00 0.00 0.00 75 1011.9
20260903111541 76 360 0.0 5.0 0.00 0.00 0.00 75 1011.8
20260903110041 76 360 0.0 4.0 0.00 0.00 0.00 74 1011.7
20260903104538 77 360 0.0 2.0 0.00 0.00 0.00 73 1011.5
20260903103036 77 360 0.0 4.0 0.00 0.00 0.00 72 1011.6
20260903101536 78 360 1.0 4.0 0.00 0.00 0.00 71 1011.5
20260903100033 78 360 0.0 4.0 0.00 0.00 0.00 71 1011.5
20260903094529 79 360 1.0 4.0 0.00 0.00 0.00 70 1011.5
20260903093027 79 360 1.0 3.0 0.00 0.00 0.00 69 1011.5
20260903091532 79 360 1.0 5.0 0.00 0.00 0.00 69 1011.5
20260903090027 80 360 1.0 5.0 0.00 0.00 0.00 68 1011.5
20260903084523 80 360 0.0 4.0 0.00 0.00 0.00 67 1011.5
20260903083020 80 360 1.0 5.0 0.00 0.00 0.00 66 1011.6
20260903081519 81 360 1.0 4.0 0.00 0.00 0.00 65 1011.4
20260903080017 81 360 2.0 6.0 0.00 0.00 0.00 65 1011.3
20260903074515 82 360 1.0 6.0 0.00 0.00 0.00 64 1011.4
20260903073013 82 360 1.0 8.0 0.00 0.00 0.00 63 1011.7
20260903071510 82 360 0.0 6.0 0.00 0.00 0.00 62 1011.7
20260903070008 83 360 1.0 5.0 0.00 0.00 0.00 61 1011.5
20260903064506 83 360 2.0 8.0 0.00 0.00 0.00 61 1011.5
20260903063005 84 360 2.0 9.0 0.00 0.00 0.00 59 1011.4
20260903061502 84 360 2.0 11.0 0.00 0.00 0.00 59 1011.5